Weather History for KPUB - March, 2013

Change the Weather History Date:

Sunday, March 3, 2013

  Actual Average Record
Temperature  
Mean Temperature 49 °F 39 °F  
Max Temperature 71 °F 55 °F 77 °F (2009)
Min Temperature 26 °F 22 °F -10 °F (1943)
Degree Days  
Heating Degree Days 16 26  
Month to date heating degree days 67 80  
Since 1 July heating degree days 4304 4383  
Cooling Degree Days 0 0  
Month to date cooling degree days 0 0  
Year to date cooling degree days 0 0  
Moisture  
Dew Point 20 °F    
Average Humidity 44    
Maximum Humidity 75    
Minimum Humidity 12    
Precipitation  
Precipitation 0.00 in 0.03 in 0.44 in (1976)
Month to date precipitation 0.00 0.07  
Year to date precipitation 0.69 0.72  
Snow  
Snow 0.00 in 0.10 in 5.90 in (1976)
Month to date snowfall 0.0 0.4  
Since 1 July snowfall 14.7 22.2  
Snow Depth 0.00 in    
Sea Level Pressure  
Sea Level Pressure 29.72 in    
Wind  
Wind Speed 12 mph (WNW)    
Max Wind Speed 33 mph    
Max Gust Speed 39 mph    
Visibility 10 miles    
Events      
T = Trace of Precipitation, MM = Missing Value Source: NWS Daily Summary

Daily Weather History Graph

Daily Weather History Graph

Search for Another Location

Airport or City:

Trip Planner

Search our weather history database for the weather conditions in past years. The results will help you decide how hot, cold, wet, or windy it might be!

Date:

Astronomy

Mar. 03, 2013 Rise Set
Actual Time 6:26 AM MST 5:53 PM MST
Civil Twilight 6:00 AM MST 6:20 PM MST
Nautical Twilight 5:29 AM MST 6:50 PM MST
Astronomical Twilight 4:59 AM MST 7:21 PM MST
Moon No Moon Rise 9:49 AM MST (3/3)
Length of Visible Light 12h 19m
Length of Day
11h 26m
Waning Gibbous, 63% of the Moon is Illuminated
Mar 3
Waning Gibbous
Mar 4
Last Quarter
Mar 11
New
Mar 19
First Quarter
Mar 27
Full

Hourly Weather History & Observations

Time (MST) Temp. Windchill Dew Point Humidity Pressure Visibility Wind Dir Wind Speed Gust Speed Precip Events Conditions
12:53 AM 39.9 °F - 23.0 °F 51% 29.99 in 10.0 mi Calm Calm - N/A   Clear
1:53 AM 37.9 °F - 24.1 °F 57% 29.96 in 10.0 mi Calm Calm - N/A   Clear
2:53 AM 34.0 °F - 24.1 °F 67% 29.91 in 10.0 mi Calm Calm - N/A   Clear
3:53 AM 33.1 °F 30.0 °F 23.0 °F 66% 29.89 in 10.0 mi NW 3.5 mph - N/A   Clear
4:53 AM 33.8 °F - 23.0 °F 65% 29.93 in 10.0 mi Calm Calm - N/A   Clear
5:53 AM 32.0 °F - 23.0 °F 69% 29.88 in 10.0 mi Calm Calm - N/A   Clear
6:53 AM 26.1 °F 20.5 °F 19.9 °F 78% 29.89 in 10.0 mi WSW 4.6 mph - N/A   Clear
7:53 AM 37.9 °F 35.5 °F 25.0 °F 60% 29.86 in 10.0 mi NNW 3.5 mph - N/A   Clear
8:53 AM 45.0 °F 41.2 °F 24.1 °F 44% 29.82 in 10.0 mi WSW 6.9 mph - N/A   Clear
9:53 AM 53.1 °F - 21.9 °F 30% 29.77 in 10.0 mi West 6.9 mph - N/A   Clear
10:53 AM 62.1 °F - 18.0 °F 18% 29.72 in 10.0 mi West 5.8 mph - N/A   Clear
11:53 AM 64.9 °F - 15.1 °F 15% 29.68 in 10.0 mi West 8.1 mph - N/A   Clear
12:53 PM 66.9 °F - 12.0 °F 12% 29.61 in 10.0 mi WSW 11.5 mph 20.7 mph N/A   Clear
1:53 PM 68.0 °F - 14.0 °F 12% 29.57 in 10.0 mi WNW 24.2 mph 32.2 mph N/A   Clear
2:53 PM 69.1 °F - 15.1 °F 13% 29.56 in 10.0 mi West 19.6 mph 29.9 mph N/A   Clear
3:53 PM 69.1 °F - 16.0 °F 13% 29.55 in 10.0 mi WNW 24.2 mph 28.8 mph N/A   Mostly Cloudy
4:53 PM 64.9 °F - 19.0 °F 17% 29.57 in 10.0 mi WNW 33.4 mph 38.0 mph N/A   Clear
5:53 PM 61.0 °F - 19.0 °F 20% 29.59 in 10.0 mi WNW 27.6 mph 36.8 mph N/A   Clear
6:53 PM 57.0 °F - 19.0 °F 23% 29.64 in 10.0 mi WNW 20.7 mph - N/A   Clear
7:53 PM 55.0 °F - 19.9 °F 25% 29.64 in 10.0 mi NW 23.0 mph - N/A   Clear
8:53 PM 53.1 °F - 21.0 °F 29% 29.65 in 10.0 mi West 17.3 mph 26.5 mph N/A   Clear
9:53 PM 53.1 °F - 21.9 °F 30% 29.62 in 10.0 mi WNW 20.7 mph 29.9 mph N/A   Clear
10:53 PM 50.0 °F - 23.0 °F 35% 29.60 in 10.0 mi WNW 18.4 mph - N/A   Clear
11:53 PM 46.9 °F - 23.0 °F 39% 29.58 in 10.0 mi NW 10.4 mph - N/A   Clear